Flag for Mozambique Weather past 2 weeks in Maputo, Mozambique

Now
73 °F

Sunny.


Feels Like: 77 °F
Forecast: 54 / 80 °F
Wind: 12 mph from Northwest

Location: Maputo / Mavalane

Current Time: Jul 30, 2014 at 11:48:59 AM

Latest Report: Jul 30, 2014 at 11:00 AM


Visibility: 10 mi

Pressure: 30.42 "Hg

Humidity: 38%

Dew point: 46 °F

Location of MaputoLocation

Historic Weather in Maputo — Graph

°F

Maputo temperature yesterday

Maximum temperature yesterday: 75 °F (at 11:00 AM)
Minimum temperature yesterday: 55 °F (at 11:00 PM)
Average temperature yesterday: 66 °F

Past Weeks' High & Low Weather Summary

 TemperatureHumidityPressure
High90 °F (Jul 17, 3:00 PM)100% (Jul 16, 5:00 AM)30.60 "Hg (Jul 16, 5:00 AM)
Low50 °F (Jul 30, 6:00 AM)13% (Jul 17, 4:00 PM)29.86 "Hg (Jul 18, 5:00 AM)
Average69 °F60%30.20 "Hg
* Reported Jul 15 10:00 AM — Jul 30 10:00 AM, Maputo, Weather by CustomWeather, © 2014

Note: Actual official high and low records may vary slightly from our data, if they occured in-between our weather recording intervals... More about our weather records

Advertising

Maputo weather history for previous 24 hours

 ConditionsComfort  
Time TempWeatherWind HumidityBarometerVisibility
10:00 AM
Jul 30
72 °FSunny.13 mph47%30.45 "Hg10 mi
9:00 AM66 °FSunny.9 mph60%30.45 "Hg10 mi
8:00 AM59 °FSunny.5 mph82%30.42 "Hg10 mi
7:00 AM52 °FFog.2 mph88%30.42 "Hg5 mi
6:00 AM50 °FFog.3 mph94%30.42 "Hg4 mi
5:00 AM52 °FFog.3 mph88%30.42 "Hg4 mi
3:00 AM54 °FFog.1 mph88%30.42 "Hg3 mi
2:00 AM54 °FFog.1 mph88%30.42 "Hg1 mi
1:00 AM54 °FFog.1 mph88%30.45 "Hg2 mi
11:00 PM
Jul 29
55 °FFog.1 mph82%30.45 "Hg2 mi
10:00 PM57 °FFog.1 mph77%30.45 "Hg3 mi
9:00 PM59 °FFog.1 mph72%30.48 "Hg3 mi
8:00 PM61 °FClear.2 mph72%30.45 "Hg10 mi
7:00 PM64 °FClear.6 mph64%30.45 "Hg10 mi
6:00 PM66 °FClear.7 mph60%30.48 "Hg5 mi
4:00 PM73 °FPassing clouds.12 mph41%30.48 "HgN/A
3:00 PM75 °FScattered clouds.9 mph39%30.48 "HgN/A
2:00 PM73 °FPartly sunny.10 mph47%30.51 "HgN/A
1:00 PM75 °FPartly sunny.13 mph47%30.54 "HgN/A
12:00 PM75 °FScattered clouds.12 mph44%30.57 "HgN/A
11:00 AM75 °FScattered clouds.12 mph44%30.57 "HgN/A
Weather by CustomWeather, © 2014

See weather overviewHow to use our weather pages